Location: Newark
(48.9320°N, 2.2664°E)
Time: 04:28:33
(UTC+00:00)

Vanguard 1 Rocket - Pass Details

Date: 23 February 2020
Orbit: 650 x 4226 km, 34.3° (Epoch: 04 April)

Event Time Altitude Azimuth Distance (km) Brightness Sun altitude
Rises 04:33:42 0° 247° (WSW) 3,730 - -22.4°
Reaches altitude 10° 04:37:46 10° 225° (SW) 2,376 - -21.7°
Exits shadow 04:40:33 15° 191° (SSW) 1,870 8.8 -21.3°
Maximum altitude 04:40:37 15° 190° (S) 1,867 8.8 -21.3°
Drops below altitude 10° 04:43:09 10° 155° (SSE) 2,067 9.4 -20.8°
Sets 04:46:17 0° 130° (SE) 2,960 10.7 -20.3°
